Погода в Зареченске

Россия / Мурманская область     66°40′53″N   31°25′58″E
темп.,
°C
ветер,
м/с
пор.,
м/с
влажн.,
%
обл.,
%
осадки,
мм/ч
давл.,
гПа
погр.,
м
15 августа, пн
пн1500:00+11зсз22658 0.0 102015
03:00+10зсз226717 0.0 102124
06:00+10ссз116574 0.0 102128
09:00+14вюв125652 0.0 1022249
12:00+16вюв235229 0.0 1022506
15:00+18вюв344917 0.0 1021673
18:00+17в355799 0.0 1020254
21:00+13всв2282100 0.4 102025
16 августа, вт
вт1600:00+12всв2289100 0.1 102045
03:00+12всв2297100 0.1 102129
06:00+12в2297100 0.0 102064
09:00+15в228820 0.0 1020170
12:00+19вюв23675 0.0 1019451
15:00+23ю354654 0.0 1018863
18:00+22вюв235540 0.0 1017223
21:00+16всв228461 0.0 101714
17 августа, ср
ср1700:00+14всв228763 0.0 101712
03:00+14всв118928 0.0 101712
06:00+15юв11895 0.0 101619
09:00+20ю24695 0.0 1015250
12:00+24ююз47515 0.0 1015798
15:00+26ююз584413 0.0 10141381
18:00+26ю48492 0.0 1013881
21:00+20ююв22735 0.4 101223
18 августа, чт
чт1800:00+17ююз3585100 1.9 101286
03:00+16юз239696 2.8 101347
06:00+17ююз369667 0.0 1013202
09:00+18зюз4788100 0.0 1015607
12:00+17зюз3786100 0.2 1017525
15:00+18зсз4571100 0.3 1019696
18:00+14с347857 0.0 1022402
21:00+11св248736 0.0 1024196
19 августа, пт
пт1900:00+9св249399 0.0 1025154
03:00+11в268743 0.0 1025454
06:00+10в379143 0.0 1026348
09:00+11в468389 0.0 1026524
12:00+13в458297 0.0 1026493
15:00+13вюв458795 0.0 1026408
18:00+13в349192 0.0 1026292
21:00+13всв3594100 0.0 1025185